| time (UTC) | temp C | wind direction | speed KPH | gust KPH | rain 1hr cm | rain 24hr cm | rain mn cm | humidity % | barometer mb |
| 20260906211600 | 23 | 79 | 9.7 | 16.1 | 0.00 | 0.00 | 0.00 | 72 | 1019.2 |
| 20260906210107 | 23 | 89 | 9.7 | 16.1 | 0.00 | 0.00 | 0.00 | 67 | 1019.4 |
| 20260906204610 | 23 | 79 | 9.7 | 16.1 | 0.00 | 0.00 | 0.00 | 66 | 1019.4 |
| 20260906203104 | 23 | 73 | 1.6 | 12.9 | 0.00 | 0.00 | 0.00 | 67 | 1019.4 |
| 20260906201600 | 23 | 74 | 9.7 | 17.7 | 0.00 | 0.00 | 0.00 | 66 | 1019.5 |
| 20260906200058 | 23 | 84 | 9.7 | 17.7 | 0.00 | 0.00 | 0.00 | 67 | 1019.5 |
| 20260906194608 | 24 | 86 | 3.2 | 14.5 | 0.00 | 0.00 | 0.00 | 66 | 1019.5 |
| 20260906193058 | 23 | 78 | 8.0 | 16.1 | 0.00 | 0.00 | 0.00 | 66 | 1019.7 |
| 20260906191610 | 23 | 72 | 8.0 | 14.5 | 0.00 | 0.00 | 0.00 | 66 | 1019.7 |
| 20260906184555 | 23 | 77 | 11.3 | 20.9 | 0.00 | 0.00 | 0.00 | 69 | 1019.8 |
| 20260906183110 | 23 | 85 | 9.7 | 17.7 | 0.00 | 0.00 | 0.00 | 73 | 1019.8 |
| 20260906181603 | 23 | 89 | 12.9 | 20.9 | 0.00 | 0.00 | 0.00 | 73 | 1019.8 |
| 20260906180120 | 23 | 327 | 4.8 | 12.9 | 0.00 | 0.00 | 0.00 | 72 | 1019.7 |
| 20260906174625 | 23 | 79 | 6.4 | 16.1 | 0.00 | 0.00 | 0.00 | 73 | 1019.8 |
| 20260906173100 | 23 | 88 | 11.3 | 17.7 | 0.00 | 0.00 | 0.00 | 73 | 1020.0 |
| 20260906171614 | 23 | 82 | 8.0 | 17.7 | 0.00 | 0.00 | 0.00 | 73 | 1020.0 |
| 20260906170106 | 23 | 80 | 9.7 | 16.1 | 0.00 | 0.00 | 0.00 | 74 | 1020.0 |
| 20260906164603 | 23 | 72 | 4.8 | 14.5 | 0.00 | 0.00 | 0.00 | 75 | 1020.1 |
| 20260906163101 | 23 | 42 | 8.0 | 17.7 | 0.00 | 0.00 | 0.00 | 73 | 1020.3 |
| 20260906161621 | 23 | 51 | 3.2 | 14.5 | 0.00 | 0.00 | 0.00 | 76 | 1020.2 |
| 20260906160059 | 22 | 58 | 6.4 | 16.1 | 0.00 | 0.00 | 0.00 | 76 | 1020.0 |
| 20260906154605 | 22 | 84 | 9.7 | 14.5 | 0.00 | 0.00 | 0.00 | 77 | 1019.9 |
| 20260906153114 | 22 | 86 | 8.0 | 17.7 | 0.00 | 0.00 | 0.00 | 79 | 1019.9 |
| 20260906151600 | 22 | 94 | 8.0 | 16.1 | 0.00 | 0.00 | 0.00 | 81 | 1020.0 |
| 20260906150107 | 21 | 75 | 11.3 | 17.7 | 0.00 | 0.00 | 0.00 | 82 | 1019.8 |
| 20260906144600 | 21 | 69 | 8.0 | 16.1 | 0.00 | 0.00 | 0.00 | 85 | 1019.9 |
| 20260906143101 | 21 | 83 | 8.0 | 14.5 | 0.00 | 0.00 | 0.00 | 87 | 1019.8 |
| 20260906141621 | 21 | 96 | 9.7 | 17.7 | 0.00 | 0.00 | 0.00 | 87 | 1019.7 |
| 20260906140100 | 20 | 79 | 9.7 | 16.1 | 0.00 | 0.00 | 0.00 | 89 | 1019.8 |
| 20260906134600 | 20 | 108 | 4.8 | 12.9 | 0.00 | 0.00 | 0.00 | 89 | 1019.9 |
| 20260906133110 | 20 | 85 | 3.2 | 8.0 | 0.00 | 0.00 | 0.00 | 90 | 1019.9 |
| 20260906131609 | 20 | 0 | 0.0 | 3.2 | 0.00 | 0.00 | 0.00 | 91 | 1019.8 |
| 20260906124606 | 18 | 76 | 0.0 | 4.8 | 0.00 | 0.00 | 0.00 | 94 | 1019.3 |
| 20260906123108 | 18 | 0 | 0.0 | 3.2 | 0.00 | 0.00 | 0.00 | 95 | 1019.1 |
| 20260906121614 | 17 | 0 | 0.0 | 0.0 | 0.00 | 0.00 | 0.00 | 95 | 1019.1 |
| 20260906120118 | 17 | 0 | 0.0 | 0.0 | 0.00 | 0.00 | 0.00 | 94 | 1018.8 |
| 20260906114600 | 17 | 0 | 0.0 | 0.0 | 0.00 | 0.00 | 0.00 | 94 | 1018.7 |
| 20260906113057 | 17 | 0 | 0.0 | 0.0 | 0.00 | 0.00 | 0.00 | 94 | 1018.4 |
| 20260906111558 | 18 | 0 | 0.0 | 3.2 | 0.00 | 0.00 | 0.00 | 94 | 1018.4 |
| 20260906110103 | 18 | 50 | 0.0 | 6.4 | 0.00 | 0.00 | 0.00 | 94 | 1018.4 |
| 20260906104558 | 18 | 51 | 1.6 | 6.4 | 0.00 | 0.00 | 0.00 | 94 | 1018.3 |
| 20260906103104 | 18 | 50 | 0.0 | 1.6 | 0.00 | 0.00 | 0.00 | 94 | 1018.2 |
| 20260906101617 | 18 | 78 | 0.0 | 6.4 | 0.00 | 0.00 | 0.00 | 94 | 1018.3 |
| 20260906100101 | 18 | 62 | 3.2 | 6.4 | 0.00 | 0.00 | 0.00 | 94 | 1018.2 |
| 20260906094607 | 18 | 84 | 0.0 | 3.2 | 0.00 | 0.00 | 0.00 | 94 | 1018.3 |
| 20260906093109 | 18 | 50 | 1.6 | 6.4 | 0.00 | 0.00 | 0.00 | 95 | 1017.9 |
| 20260906091606 | 17 | 71 | 0.0 | 1.6 | 0.00 | 0.00 | 0.00 | 96 | 1017.7 |
| 20260906090104 | 17 | 0 | 0.0 | 0.0 | 0.00 | 0.00 | 0.00 | 95 | 1018.0 |
| 20260906084613 | 17 | 0 | 0.0 | 0.0 | 0.00 | 0.00 | 0.00 | 95 | 1018.0 |
| 20260906083104 | 17 | 0 | 0.0 | 0.0 | 0.00 | 0.00 | 0.00 | 95 | 1017.9 |
| 20260906081605 | 17 | 0 | 0.0 | 0.0 | 0.00 | 0.00 | 0.00 | 95 | 1017.7 |
| 20260906080105 | 17 | 0 | 0.0 | 0.0 | 0.00 | 0.00 | 0.00 | 95 | 1017.8 |
| 20260906074602 | 17 | 0 | 0.0 | 0.0 | 0.00 | 0.00 | 0.00 | 95 | 1017.8 |
| 20260906073103 | 17 | 0 | 0.0 | 0.0 | 0.00 | 0.00 | 0.00 | 95 | 1017.8 |
| 20260906071559 | 17 | 0 | 0.0 | 1.6 | 0.00 | 0.00 | 0.00 | 95 | 1017.7 |
| 20260906070058 | 17 | 0 | 0.0 | 0.0 | 0.00 | 0.00 | 0.00 | 94 | 1017.8 |
| 20260906064600 | 17 | 0 | 0.0 | 0.0 | 0.00 | 0.00 | 0.00 | 94 | 1018.0 |
| 20260906063103 | 17 | 0 | 0.0 | 1.6 | 0.00 | 0.00 | 0.00 | 94 | 1018.0 |
| 20260906061600 | 17 | 0 | 0.0 | 0.0 | 0.00 | 0.00 | 0.00 | 94 | 1018.0 |
| 20260906060136 | 17 | 0 | 0.0 | 1.6 | 0.00 | 0.00 | 0.00 | 94 | 1017.9 |
| 20260906054612 | 17 | 0 | 0.0 | 1.6 | 0.00 | 0.00 | 0.00 | 93 | 1017.9 |
| 20260906053058 | 17 | 0 | 0.0 | 0.0 | 0.00 | 0.00 | 0.00 | 92 | 1017.9 |
| 20260906051602 | 18 | 0 | 0.0 | 1.6 | 0.00 | 0.00 | 0.00 | 91 | 1017.8 |
| 20260906050105 | 18 | 0 | 0.0 | 3.2 | 0.00 | 0.00 | 0.00 | 91 | 1017.7 |
| 20260906044606 | 18 | 0 | 0.0 | 4.8 | 0.00 | 0.00 | 0.00 | 89 | 1017.8 |
| 20260906043102 | 18 | 68 | 0.0 | 1.6 | 0.00 | 0.00 | 0.00 | 89 | 1017.5 |
| 20260906041605 | 18 | 79 | 0.0 | 3.2 | 0.00 | 0.00 | 0.00 | 88 | 1017.3 |
| 20260906040105 | 18 | 75 | 1.6 | 4.8 | 0.00 | 0.00 | 0.00 | 88 | 1017.2 |
| 20260906034607 | 19 | 45 | 3.2 | 9.7 | 0.00 | 0.00 | 0.00 | 89 | 1017.5 |
| 20260906033101 | 19 | 41 | 4.8 | 9.7 | 0.00 | 0.00 | 0.00 | 90 | 1017.3 |
| 20260906031603 | 20 | 73 | 3.2 | 9.7 | 0.00 | 0.00 | 0.00 | 91 | 1017.2 |
| 20260906030101 | 20 | 47 | 3.2 | 11.3 | 0.00 | 0.00 | 0.00 | 92 | 1017.1 |
| 20260906024613 | 20 | 45 | 3.2 | 4.8 | 0.00 | 0.00 | 0.00 | 92 | 1017.0 |
| 20260906023058 | 20 | 49 | 0.0 | 3.2 | 0.00 | 0.00 | 0.00 | 91 | 1016.9 |
| 20260906021603 | 20 | 88 | 0.0 | 3.2 | 0.00 | 0.00 | 0.00 | 91 | 1016.7 |
| 20260906020109 | 20 | 50 | 3.2 | 11.3 | 0.00 | 0.00 | 0.00 | 91 | 1016.7 |
| 20260906014607 | 20 | 37 | 4.8 | 11.3 | 0.00 | 0.00 | 0.00 | 91 | 1016.7 |
| 20260906013108 | 20 | 41 | 6.4 | 9.7 | 0.00 | 0.00 | 0.00 | 90 | 1016.8 |
| 20260906011608 | 20 | 49 | 1.6 | 6.4 | 0.00 | 0.00 | 0.00 | 90 | 1016.8 |
| 20260906010143 | 20 | 74 | 3.2 | 9.7 | 0.00 | 0.00 | 0.00 | 90 | 1016.8 |
| 20260906004617 | 21 | 84 | 1.6 | 8.0 | 0.00 | 0.00 | 0.00 | 89 | 1016.8 |
| 20260906003102 | 21 | 41 | 4.8 | 8.0 | 0.00 | 0.00 | 0.00 | 88 | 1016.7 |
| 20260906001606 | 21 | 79 | 8.0 | 20.9 | 0.00 | 0.00 | 0.00 | 87 | 1016.8 |
| 20260906000100 | 22 | 36 | 11.3 | 19.3 | 0.00 | 0.00 | 0.00 | 86 | 1016.4 |
| 20260905234556 | 22 | 90 | 11.3 | 20.9 | 0.00 | 0.00 | 0.00 | 86 | 1016.4 |
| 20260905233103 | 22 | 50 | 11.3 | 22.5 | 0.00 | 0.00 | 0.00 | 85 | 1016.3 |
| 20260905231607 | 22 | 69 | 6.4 | 17.7 | 0.00 | 0.00 | 0.00 | 85 | 1016.6 |
| 20260905224603 | 23 | 92 | 4.8 | 12.9 | 0.00 | 0.00 | 0.00 | 80 | 1016.2 |
| 20260905223100 | 23 | 50 | 4.8 | 14.5 | 0.00 | 0.00 | 0.00 | 80 | 1016.1 |
| 20260905221600 | 23 | 75 | 8.0 | 16.1 | 0.00 | 0.00 | 0.00 | 80 | 1016.0 |
| 20260905220103 | 24 | 68 | 8.0 | 24.1 | 0.00 | 0.00 | 0.00 | 78 | 1015.9 |
| 20260905214609 | 24 | 6 | 8.0 | 20.9 | 0.00 | 0.00 | 0.00 | 77 | 1015.7 |
| 20260905213106 | 24 | 37 | 9.7 | 20.9 | 0.00 | 0.00 | 0.00 | 79 | 1015.5 |